User: anonymous   Login
Location: Sungai Apap
(2.6167°N, 113.3833°E)
Time: 15:21:08
(UTC+00:00)
Language:

Cosmos 1939 Rocket - Orbit

View from above orbital plane
View from above orbital plane
View from above satellite
View from above satellite

Ground track
Ground track

The orbit data is extracted from the following two-line orbital elements,

1 19046U 88032B   24206.95687348  .00006916  00000-0  41866-3 0  9995
2 19046  97.4515 187.7126 0033317 127.0354 233.3931 15.10454792962317
Epoch (UTC): 24 July 2024 22:57:53
Eccentricity: 0.0033317
inclination: 97.4515°
perigee height: 512 km
apogee height: 558 km
right ascension of ascending node: 187.7126°
argument of perigee: 127.0354°
revolutions per day: 15.10454792
mean anomaly at epoch: 233.3931°
orbit number at epoch: 96231

The dashed part of the orbit path shows where the satellite is in the earth's shadow,  

DLR